WB4FAY-4 Weather Reports


Display with metric or nautical units.
time (UTC)temp
F
wind
direction
speed
MPH
gust
MPH
rain 1hr
in
rain 24hr
in
rain mn
in
humidity
%
barometer
mb
20171217175117 44 360 5.0 8.0 0.00 0.00 0.04 96 1023.2
20171217174617 44 312 3.0 10.0 0.00 0.00 0.04 96 1023.3
20171217174117 45 25 3.0 9.0 0.00 0.00 0.04 95 1023.5
20171217173617 45 11 2.0 10.0 0.00 0.00 0.04 95 1023.2
20171217173117 45 16 4.0 15.0 0.00 0.00 0.04 95 1023.7
20171217172617 45 295 5.0 10.0 0.00 0.00 0.04 95 1024.3
20171217172117 45 328 8.0 10.0 0.00 0.00 0.04 95 1024.2
20171217171618 45 287 6.0 7.0 0.00 0.00 0.04 95 1023.8
20171217171117 45 298 4.0 5.0 0.00 0.00 0.04 95 1023.4
20171217170617 45 10 2.0 7.0 0.00 0.00 0.04 95 1022.6
20171217170117 45 315 3.0 7.0 0.00 0.00 0.04 95 1022.6
20171217165617 45 0 0.0 0.0 0.00 0.00 0.04 95 1022.5
20171217165117 45 32 0.0 2.0 0.00 0.00 0.04 95 1022.0
20171217164617 45 45 0.0 5.0 0.00 0.00 0.04 95 1022.0
20171217164117 45 73 4.0 4.0 0.00 0.00 0.04 95 1022.1
20171217163617 45 99 2.0 4.0 0.00 0.00 0.04 95 1022.2
20171217163117 45 66 1.0 1.0 0.00 0.00 0.04 95 1022.4
20171217162617 45 34 0.0 2.0 0.00 0.00 0.04 94 1022.7
20171217162117 45 357 2.0 2.0 0.00 0.00 0.04 94 1022.6
20171217161617 45 14 0.0 4.0 0.00 0.00 0.04 94 1022.8
20171217161117 45 65 1.0 3.0 0.00 0.00 0.04 94 1022.6
20171217160617 45 0 1.0 0.0 0.00 0.00 0.04 94 1022.6
20171217160117 45 104 0.0 2.0 0.00 0.00 0.04 94 1022.6
20171217155617 45 44 0.0 3.0 0.00 0.00 0.04 94 1022.6
20171217155117 45 35 2.0 4.0 0.00 0.00 0.04 93 1022.6
20171217154617 45 72 0.0 4.0 0.00 0.00 0.04 93 1022.7
20171217154117 45 127 3.0 6.0 0.00 0.00 0.04 93 1022.5
20171217153617 45 131 3.0 4.0 0.00 0.00 0.04 93 1022.8
20171217153117 45 56 3.0 2.0 0.00 0.00 0.04 93 1023.0
20171217152617 45 89 0.0 4.0 0.00 0.00 0.04 93 1023.0
20171217152117 44 356 1.0 3.0 0.00 0.00 0.04 92 1023.2
20171217151617 44 80 0.0 7.0 0.00 0.00 0.04 92 1023.2
20171217151117 44 71 2.0 5.0 0.00 0.00 0.04 92 1023.0
20171217150617 44 69 4.0 5.0 0.00 0.00 0.04 92 1023.2
20171217150117 44 75 3.0 4.0 0.00 0.00 0.04 92 1022.9
20171217145617 44 64 2.0 7.0 0.00 0.00 0.04 92 1023.0
20171217145117 45 72 4.0 6.0 0.00 0.00 0.04 92 1022.9
20171217144617 44 55 5.0 5.0 0.00 0.00 0.04 92 1023.0
20171217144117 44 37 3.0 3.0 0.00 0.00 0.04 92 1023.2
20171217143617 44 69 2.0 4.0 0.00 0.00 0.04 92 1023.3
20171217143118 44 73 2.0 2.0 0.00 0.00 0.04 92 1023.3
20171217142617 45 73 1.0 2.0 0.00 0.00 0.04 92 1023.4
20171217142117 45 65 0.0 5.0 0.00 0.00 0.04 91 1023.4
20171217141617 44 0 2.0 0.0 0.00 0.00 0.04 91 1023.4
20171217141117 45 0 0.0 0.0 0.00 0.00 0.04 90 1023.5
20171217140617 45 0 0.0 0.0 0.00 0.00 0.04 89 1023.8
20171217140117 45 16 0.0 1.0 0.00 0.00 0.04 89 1023.8
20171217135618 45 349 0.0 1.0 0.00 0.00 0.04 88 1024.2
20171217135117 45 0 0.0 0.0 0.00 0.00 0.04 87 1024.2
20171217134617 45 0 0.0 0.0 0.00 0.00 0.04 86 1024.0
20171217134117 45 0 0.0 0.0 0.00 0.00 0.04 85 1024.4
20171217133617 45 0 0.0 0.0 0.00 0.00 0.04 84 1024.3
20171217133117 45 0 0.0 0.0 0.00 0.00 0.04 83 1024.5
20171217132618 46 274 0.0 2.0 0.00 0.00 0.02 81 1025.3
20171217132117 46 0 2.0 0.0 0.00 0.00 0.01 79 1025.3
20171217131617 46 0 0.0 0.0 0.00 0.00 0.01 79 1024.9
20171217131117 47 0 0.0 0.0 0.00 0.00 0.01 75 1024.2
20171217130617 47 0 0.0 0.0 0.00 0.00 0.01 72 1023.8
20171217130117 47 0 0.0 0.0 0.00 0.00 0.00 70 1023.7
20171217125617 47 0 0.0 0.0 0.00 0.00 0.00 68 1023.5
20171217125117 47 0 0.0 0.0 0.00 0.00 0.00 67 1023.3
20171217124617 47 0 0.0 0.0 0.00 0.00 0.00 66 1022.9
20171217124117 47 0 0.0 0.0 0.00 0.00 0.00 64 1022.9
20171217123617 47 0 0.0 0.0 0.00 0.00 0.00 64 1023.2
20171217123117 47 0 0.0 0.0 0.00 0.00 0.00 64 1023.1
20171217122617 47 0 0.0 0.0 0.00 0.00 0.00 64 1022.9
20171217122117 47 0 0.0 0.0 0.00 0.00 0.00 63 1022.7
20171217121617 47 0 0.0 0.0 0.00 0.00 0.00 63 1022.7
20171217121117 47 0 0.0 0.0 0.00 0.00 0.00 63 1022.5
20171217120617 46 0 0.0 0.0 0.00 0.00 0.00 62 1022.2
20171217120118 46 0 0.0 0.0 0.00 0.00 0.00 64 1021.7
20171217115617 46 0 0.0 0.0 0.00 0.00 0.00 64 1021.7
20171217115117 46 0 0.0 0.0 0.00 0.00 0.00 66 1021.8
20171217114617 45 41 0.0 3.0 0.00 0.00 0.00 67 1022.1
20171217114117 45 0 0.0 0.0 0.00 0.00 0.00 67 1022.0
20171217113617 45 0 0.0 0.0 0.00 0.00 0.00 69 1021.6
20171217113117 45 72 0.0 3.0 0.00 0.00 0.00 70 1021.6
20171217112617 44 0 1.0 0.0 0.00 0.00 0.00 70 1021.7
20171217112117 44 0 0.0 0.0 0.00 0.00 0.00 72 1022.0
20171217111617 44 0 0.0 0.0 0.00 0.00 0.00 71 1022.1
20171217111117 44 0 0.0 0.0 0.00 0.00 0.00 70 1021.5
20171217110617 44 73 0.0 3.0 0.00 0.00 0.00 71 1021.1
20171217110117 43 0 0.0 0.0 0.00 0.00 0.00 71 1021.0
20171217105618 43 0 0.0 0.0 0.00 0.00 0.00 71 1021.3
20171217105117 43 0 0.0 0.0 0.00 0.00 0.00 71 1021.2
20171217104617 43 0 0.0 0.0 0.00 0.00 0.00 71 1021.2
20171217104117 42 0 0.0 0.0 0.00 0.00 0.00 73 1021.0
20171217103617 42 0 0.0 0.0 0.00 0.00 0.00 73 1021.0
20171217103117 42 0 0.0 0.0 0.00 0.00 0.00 74 1021.1
20171217102618 42 0 0.0 0.0 0.00 0.00 0.00 74 1021.1
20171217102117 42 0 0.0 0.0 0.00 0.00 0.00 74 1021.1
20171217101617 42 0 0.0 0.0 0.00 0.00 0.00 74 1020.9
20171217101117 42 0 0.0 0.0 0.00 0.00 0.00 74 1021.1
20171217100617 41 0 0.0 0.0 0.00 0.00 0.00 74 1021.3
20171217100118 41 0 0.0 0.0 0.00 0.00 0.00 74 1021.5
20171217095617 41 0 0.0 0.0 0.00 0.00 0.00 74 1021.5
20171217095117 41 0 0.0 0.0 0.00 0.00 0.00 74 1021.3
20171217094617 41 0 0.0 0.0 0.00 0.00 0.00 74 1021.3
20171217094117 41 0 0.0 0.0 0.00 0.00 0.00 73 1021.3
20171217093617 41 0 0.0 0.0 0.00 0.00 0.00 73 1021.3
20171217093117 41 0 0.0 0.0 0.00 0.00 0.00 73 1021.4
20171217092617 41 59 0.0 2.0 0.00 0.00 0.00 72 1021.5
20171217092117 41 71 0.0 5.0 0.00 0.00 0.00 72 1021.4
20171217091617 41 0 0.0 0.0 0.00 0.00 0.00 72 1021.7
20171217091117 41 80 0.0 4.0 0.00 0.00 0.00 71 1021.7
20171217090617 41 56 0.0 4.0 0.00 0.00 0.00 71 1021.8
20171217090117 42 73 0.0 4.0 0.00 0.00 0.00 71 1021.9
20171217085617 42 0 3.0 0.0 0.00 0.00 0.00 71 1022.1
20171217085117 42 0 0.0 0.0 0.00 0.00 0.00 71 1022.1
20171217084618 42 0 0.0 0.0 0.00 0.00 0.00 70 1022.2
20171217084117 42 0 0.0 0.0 0.00 0.00 0.00 70 1022.2
20171217083617 42 89 0.0 5.0 0.00 0.00 0.00 70 1022.3
20171217083117 42 0 0.0 0.0 0.00 0.00 0.00 70 1022.4
20171217082617 42 90 0.0 4.0 0.00 0.00 0.00 70 1022.4
20171217082117 42 0 3.0 0.0 0.00 0.00 0.00 70 1022.5
20171217081617 42 0 0.0 0.0 0.00 0.00 0.00 70 1022.6
20171217081117 42 0 0.0 0.0 0.00 0.00 0.00 70 1022.5
20171217080618 42 0 0.0 0.0 0.00 0.00 0.00 70 1022.7
20171217080117 42 0 0.0 0.0 0.00 0.00 0.00 70 1022.6
20171217075618 42 0 0.0 0.0 0.00 0.00 0.00 70 1022.7
20171217075117 42 0 0.0 0.0 0.00 0.00 0.00 70 1022.5
20171217074617 42 0 0.0 0.0 0.00 0.00 0.00 70 1022.6
20171217074117 42 0 0.0 0.0 0.00 0.00 0.00 70 1022.8
20171217073617 42 0 0.0 0.0 0.00 0.00 0.00 71 1022.9
20171217073117 42 0 0.0 0.0 0.00 0.00 0.00 71 1023.0
20171217072617 42 0 0.0 0.0 0.00 0.00 0.00 71 1023.1
20171217072117 42 0 0.0 0.0 0.00 0.00 0.00 71 1023.3
20171217071617 42 0 0.0 0.0 0.00 0.00 0.00 70 1023.4
20171217071117 42 0 0.0 0.0 0.00 0.00 0.00 71 1023.5
20171217070617 41 0 0.0 0.0 0.00 0.00 0.00 71 1023.5
20171217070117 41 0 0.0 0.0 0.00 0.00 0.00 71 1023.6
20171217065617 41 0 0.0 0.0 0.00 0.00 0.00 72 1023.7
20171217065117 41 0 0.0 0.0 0.00 0.00 0.00 72 1023.5
20171217064617 41 0 0.0 0.0 0.00 0.00 0.00 73 1023.5
20171217064117 41 0 0.0 0.0 0.00 0.00 0.00 73 1023.5
20171217063617 41 0 0.0 0.0 0.00 0.00 0.00 74 1023.4
20171217063118 41 0 0.0 0.0 0.00 0.00 0.00 74 1023.5
20171217062617 40 0 0.0 0.0 0.00 0.00 0.00 75 1023.6
20171217062117 40 0 0.0 0.0 0.00 0.00 0.00 75 1023.7
20171217061617 40 0 0.0 0.0 0.00 0.00 0.00 74 1024.0
20171217061117 40 0 0.0 0.0 0.00 0.00 0.00 74 1023.9
20171217060617 40 0 0.0 0.0 0.00 0.00 0.00 74 1024.0
20171217060117 40 0 0.0 0.0 0.00 0.00 0.00 74 1024.2
20171217055617 40 0 0.0 0.0 0.00 0.00 0.00 74 1024.4
20171217055117 40 0 0.0 0.0 0.00 0.00 0.00 75 1024.5
20171217054617 40 0 0.0 0.0 0.00 0.00 0.00 75 1024.6
20171217054117 40 0 0.0 0.0 0.00 0.00 0.00 75 1024.7
20171217053617 40 0 0.0 0.0 0.00 0.00 0.00 75 1024.8
20171217053118 40 0 0.0 0.0 0.00 0.00 0.00 75 1024.7
20171217052617 40 0 0.0 0.0 0.00 0.00 0.00 75 1024.9
20171217052117 40 0 0.0 0.0 0.00 0.00 0.00 74 1024.8
20171217051617 40 0 0.0 0.0 0.00 0.00 0.00 74 1024.8
20171217051117 40 0 0.0 0.0 0.00 0.00 0.00 75 1024.9
20171217050617 40 0 0.0 0.0 0.00 0.00 0.00 75 1024.9
20171217050118 40 0 0.0 0.0 0.00 0.00 0.00 75 1025.0
20171217045617 40 0 0.0 0.0 0.00 0.00 0.00 74 1025.0
20171217045117 40 0 0.0 0.0 0.00 0.00 0.00 75 1025.0
20171217044617 40 0 0.0 0.0 0.00 0.00 0.00 75 1025.0
20171217044117 40 0 0.0 0.0 0.00 0.00 0.00 75 1025.0
20171217043617 40 0 0.0 0.0 0.00 0.00 0.00 75 1024.9
20171217043117 40 0 0.0 0.0 0.00 0.00 0.00 75 1025.0
20171217042617 40 0 0.0 0.0 0.00 0.00 0.00 75 1025.1
20171217042117 40 0 0.0 0.0 0.00 0.00 0.00 75 1025.2
20171217041617 40 0 0.0 0.0 0.00 0.00 0.00 75 1025.2
20171217041117 40 0 0.0 0.0 0.00 0.00 0.00 75 1025.2
20171217040617 40 0 0.0 0.0 0.00 0.00 0.00 75 1025.2
20171217040117 40 0 0.0 0.0 0.00 0.00 0.00 76 1025.3
20171217035617 40 0 0.0 0.0 0.00 0.00 0.00 75 1025.2
20171217035117 40 0 0.0 0.0 0.00 0.00 0.00 75 1025.1
20171217034617 40 0 0.0 0.0 0.00 0.00 0.00 74 1025.0
20171217034117 40 0 0.0 0.0 0.00 0.00 0.00 74 1025.0
20171217033618 40 0 0.0 0.0 0.00 0.00 0.00 74 1025.0
20171217033117 40 0 0.0 0.0 0.00 0.00 0.00 74 1025.0
20171217032617 40 0 0.0 0.0 0.00 0.00 0.00 74 1025.1
20171217032117 41 0 0.0 0.0 0.00 0.00 0.00 73 1025.2
20171217031617 41 0 0.0 0.0 0.00 0.00 0.00 73 1025.1
20171217031117 41 0 0.0 0.0 0.00 0.00 0.00 73 1025.2
20171217030618 41 0 0.0 0.0 0.00 0.00 0.00 73 1025.1
20171217030117 41 0 0.0 0.0 0.00 0.00 0.00 72 1025.1
20171217025617 41 0 0.0 0.0 0.00 0.00 0.00 73 1025.1
20171217025118 41 0 0.0 0.0 0.00 0.00 0.00 73 1025.1
20171217024617 41 0 0.0 0.0 0.00 0.00 0.00 73 1024.9
20171217024117 41 0 0.0 0.0 0.00 0.00 0.00 73 1024.9
20171217023617 41 0 0.0 0.0 0.00 0.00 0.00 73 1024.9
20171217023117 41 0 0.0 0.0 0.00 0.00 0.00 72 1024.8
20171217022617 41 0 0.0 0.0 0.00 0.00 0.00 72 1025.0
20171217022118 41 0 0.0 0.0 0.00 0.00 0.00 72 1025.0
20171217021617 41 0 0.0 0.0 0.00 0.00 0.00 72 1025.0
20171217021117 41 0 0.0 0.0 0.00 0.00 0.00 72 1024.9
20171217020617 41 0 0.0 0.0 0.00 0.00 0.00 72 1024.9
20171217020117 41 0 0.0 0.0 0.00 0.00 0.00 71 1025.0
20171217015617 41 0 0.0 0.0 0.00 0.00 0.00 72 1025.1
20171217015117 41 0 0.0 0.0 0.00 0.00 0.00 72 1025.0
20171217014617 42 0 0.0 0.0 0.00 0.00 0.00 71 1025.1
20171217014117 42 0 0.0 0.0 0.00 0.00 0.00 70 1025.0
20171217013617 42 0 0.0 0.0 0.00 0.00 0.00 69 1024.9
20171217013117 42 0 0.0 0.0 0.00 0.00 0.00 68 1024.8
20171217012617 42 0 0.0 0.0 0.00 0.00 0.00 68 1024.7
20171217012117 43 0 0.0 0.0 0.00 0.00 0.00 68 1024.7
20171217011617 43 0 0.0 0.0 0.00 0.00 0.00 67 1024.7
20171217011117 43 0 0.0 0.0 0.00 0.00 0.00 67 1024.7
20171217010617 43 0 0.0 0.0 0.00 0.00 0.00 66 1024.6
20171217010117 43 0 0.0 0.0 0.00 0.00 0.00 65 1024.7
20171217005617 43 0 0.0 0.0 0.00 0.00 0.00 64 1024.6
20171217005117 44 0 0.0 0.0 0.00 0.00 0.00 65 1024.5
20171217004617 44 0 0.0 0.0 0.00 0.00 0.00 65 1024.5
20171217004117 44 0 0.0 0.0 0.00 0.00 0.00 64 1024.5
20171217003617 44 0 0.0 0.0 0.00 0.00 0.00 64 1024.6
20171217003117 44 0 0.0 0.0 0.00 0.00 0.00 63 1024.6
20171217002617 45 0 0.0 0.0 0.00 0.00 0.00 62 1024.6
20171217002117 45 0 0.0 0.0 0.00 0.00 0.00 62 1024.6
20171217001622 45 0 0.0 0.0 0.00 0.00 0.00 61 1024.4
20171217001117 46 0 0.0 0.0 0.00 0.00 0.00 61 1024.4
20171217000617 46 0 0.0 0.0 0.00 0.00 0.00 60 1024.3
20171217000117 46 0 0.0 0.0 0.00 0.00 0.00 60 1024.2
20171216235622 46 0 0.0 0.0 0.00 0.00 0.00 59 1024.3
20171216235117 46 0 0.0 0.0 0.00 0.00 0.00 60 1024.3
20171216234622 47 0 0.0 0.0 0.00 0.00 0.00 60 1024.2
20171216234117 47 0 0.0 0.0 0.00 0.00 0.00 60 1024.0
20171216233617 47 0 0.0 0.0 0.00 0.00 0.00 60 1024.0
20171216233117 47 0 0.0 0.0 0.00 0.00 0.00 59 1023.8
20171216232617 47 0 0.0 0.0 0.00 0.00 0.00 58 1023.8
20171216232117 48 0 0.0 0.0 0.00 0.00 0.00 58 1023.8
20171216231617 48 0 0.0 0.0 0.00 0.00 0.00 58 1023.8
20171216231117 48 0 0.0 0.0 0.00 0.00 0.00 57 1023.8
20171216230617 48 0 0.0 0.0 0.00 0.00 0.00 57 1023.7
20171216230117 48 0 0.0 0.0 0.00 0.00 0.00 56 1023.7
20171216225617 49 0 0.0 0.0 0.00 0.00 0.00 55 1023.6
20171216225117 49 0 0.0 0.0 0.00 0.00 0.00 54 1023.9
20171216224617 49 0 0.0 0.0 0.00 0.00 0.00 53 1023.9
20171216224118 50 0 0.0 0.0 0.00 0.00 0.00 52 1023.9
20171216223617 50 0 0.0 0.0 0.00 0.00 0.00 52 1023.8
20171216223117 51 0 0.0 0.0 0.00 0.00 0.00 51 1023.9
20171216222617 51 0 0.0 0.0 0.00 0.00 0.00 50 1023.9
20171216222117 51 0 0.0 0.0 0.00 0.00 0.00 48 1023.9
20171216221617 52 0 0.0 0.0 0.00 0.00 0.00 49 1023.9
20171216221117 52 0 0.0 0.0 0.00 0.00 0.00 48 1023.7
20171216220617 53 0 0.0 0.0 0.00 0.00 0.00 47 1023.7
20171216220117 53 0 0.0 0.0 0.00 0.00 0.00 46 1023.5
20171216215618 53 0 0.0 0.0 0.00 0.00 0.00 45 1023.5
20171216215117 53 0 0.0 0.0 0.00 0.00 0.00 45 1023.6
20171216214617 53 0 0.0 0.0 0.00 0.00 0.00 43 1023.4
20171216214117 54 0 0.0 0.0 0.00 0.00 0.00 44 1023.5
20171216213617 54 0 0.0 0.0 0.00 0.00 0.00 44 1023.5
20171216213117 55 191 0.0 2.0 0.00 0.00 0.00 43 1023.5
20171216212617 55 212 0.0 3.0 0.00 0.00 0.00 41 1023.4
20171216212117 56 0 0.0 0.0 0.00 0.00 0.00 41 1023.7
20171216211617 56 0 0.0 0.0 0.00 0.00 0.00 42 1023.8
20171216211117 55 272 0.0 5.0 0.00 0.00 0.00 41 1023.7
20171216210617 56 239 0.0 2.0 0.00 0.00 0.00 40 1023.7
20171216210117 56 0 0.0 0.0 0.00 0.00 0.00 40 1023.8
20171216205617 56 199 0.0 5.0 0.00 0.00 0.00 39 1023.7
20171216205118 56 195 2.0 3.0 0.00 0.00 0.00 40 1023.7
20171216204620 55 152 0.0 1.0 0.00 0.00 0.00 40 1023.6
20171216204119 55 192 0.0 2.0 0.00 0.00 0.00 42 1023.8
20171216203617 55 134 2.0 2.0 0.00 0.00 0.00 43 1023.9
20171216203117 54 174 0.0 4.0 0.00 0.00 0.00 43 1023.7
20171216202618 54 178 0.0 5.0 0.00 0.00 0.00 43 1023.8
20171216202119 54 209 0.0 4.0 0.00 0.00 0.00 43 1023.8
20171216201619 54 230 0.0 4.0 0.00 0.00 0.00 43 1023.7
20171216201118 55 191 0.0 5.0 0.00 0.00 0.00 41 1023.7
20171216200618 55 216 0.0 3.0 0.00 0.00 0.00 42 1023.8
20171216200118 55 196 0.0 1.0 0.00 0.00 0.00 43 1023.8
20171216195619 55 220 0.0 3.0 0.00 0.00 0.00 43 1023.9
20171216195118 55 0 1.0 0.0 0.00 0.00 0.00 42 1023.9
20171216194619 54 0 0.0 0.0 0.00 0.00 0.00 43 1024.0
20171216194117 54 0 0.0 0.0 0.00 0.00 0.00 44 1024.0
20171216193619 54 281 0.0 3.0 0.00 0.00 0.00 43 1024.3
20171216193117 54 209 0.0 5.0 0.00 0.00 0.00 44 1024.3
20171216192617 54 227 1.0 5.0 0.00 0.00 0.00 44 1024.3
20171216192117 54 75 0.0 4.0 0.00 0.00 0.00 46 1024.3
20171216191617 53 161 0.0 2.0 0.00 0.00 0.00 45 1024.3
20171216191118 53 0 0.0 0.0 0.00 0.00 0.00 46 1024.3
20171216190618 53 181 0.0 2.0 0.00 0.00 0.00 44 1024.4
20171216190117 54 0 0.0 0.0 0.00 0.00 0.00 44 1024.4
20171216185617 53 200 0.0 4.0 0.00 0.00 0.00 45 1024.5
20171216185117 53 198 2.0 5.0 0.00 0.00 0.00 45 1024.8
20171216184617 53 195 0.0 6.0 0.00 0.00 0.00 47 1024.9
20171216184117 53 100 0.0 4.0 0.00 0.00 0.00 46 1024.9
20171216183617 53 0 0.0 0.0 0.00 0.00 0.00 47 1024.9
20171216183117 53 0 0.0 0.0 0.00 0.00 0.00 47 1025.1
20171216182617 53 127 0.0 1.0 0.00 0.00 0.00 48 1025.2
20171216182117 53 121 0.0 2.0 0.00 0.00 0.00 48 1025.3
20171216181617 52 0 0.0 0.0 0.00 0.00 0.00 49 1025.3
20171216181118 51 147 0.0 4.0 0.00 0.00 0.00 50 1025.3
20171216180618 51 45 0.0 4.0 0.00 0.00 0.00 50 1025.5
20171216180117 51 89 3.0 5.0 0.00 0.00 0.00 51 1025.4
20171216175617 51 106 0.0 4.0 0.00 0.00 0.00 51 1025.6